QTR4V UBBB-OTHH

Flight info

Callsign QTR4V
Flight time 3h 31m
Altitude 37000
Route DCT ARI DCT BGD DCT
Aircraft A320/M-SDE3FGHIRWY/LB1

Departure

Time 2026-05-05 14:23
Airport Heydar Aliyev International Airport (UBBB)

Arrival

Time 2026-05-05 17:54
Airport Hamad International Airport (OTHH)
Time Latitude Longitude Altitude Speed Heading
2026-05-05 13:43 40.46628 50.05092 15 ft 0 kts 116°
2026-05-05 14:08 40.46638 50.05064 15 ft 4 kts 116°
2026-05-05 14:08 40.46650 50.05033 15 ft 4 kts 117°
2026-05-05 14:08 40.46663 50.05002 16 ft 4 kts 120°
2026-05-05 14:09 40.46672 50.04981 15 ft 0 kts 121°
2026-05-05 14:11 40.46671 50.04982 15 ft 1 kts 121°
2026-05-05 14:11 40.46663 50.04985 16 ft 2 kts 170°
2026-05-05 14:12 40.46649 50.04975 17 ft 3 kts 205°
2026-05-05 14:12 40.46618 50.04957 15 ft 6 kts 205°
2026-05-05 14:12 40.46574 50.04921 17 ft 9 kts 217°
2026-05-05 14:12 40.46552 50.04844 15 ft 10 kts 267°
2026-05-05 14:13 40.46547 50.04741 16 ft 12 kts 267°
2026-05-05 14:13 40.46543 50.04621 15 ft 14 kts 268°
2026-05-05 14:13 40.46540 50.04482 14 ft 16 kts 269°
2026-05-05 14:13 40.46539 50.04329 14 ft 13 kts 269°
2026-05-05 14:14 40.46539 50.04232 14 ft 11 kts 276°
2026-05-05 14:14 40.46586 50.04140 14 ft 14 kts 328°
2026-05-05 14:14 40.46680 50.04089 14 ft 16 kts 339°
2026-05-05 14:14 40.46792 50.04037 14 ft 18 kts 340°
2026-05-05 14:15 40.46916 50.03975 14 ft 20 kts 339°
2026-05-05 14:15 40.47053 50.03907 14 ft 22 kts 339°
2026-05-05 14:15 40.47202 50.03834 14 ft 23 kts 339°
2026-05-05 14:15 40.47328 50.03774 14 ft 17 kts 340°
2026-05-05 14:16 40.47438 50.03718 14 ft 15 kts 339°
2026-05-05 14:16 40.47526 50.03675 14 ft 14 kts 340°
2026-05-05 14:16 40.47605 50.03665 15 ft 12 kts
2026-05-05 14:16 40.47662 50.03637 13 ft 8 kts 315°
2026-05-05 14:17 40.47677 50.03581 12 ft 6 kts 270°
2026-05-05 14:17 40.47677 50.03571 11 ft 0 kts 269°
2026-05-05 14:17 40.47677 50.03562 11 ft 3 kts 269°
2026-05-05 14:18 40.47682 50.03525 11 ft 5 kts 289°
2026-05-05 14:18 40.47715 50.03482 13 ft 8 kts 327°
2026-05-05 14:18 40.47779 50.03456 12 ft 11 kts 345°
2026-05-05 14:18 40.47860 50.03428 11 ft 13 kts 346°
2026-05-05 14:19 40.47955 50.03397 11 ft 15 kts 346°
2026-05-05 14:19 40.48067 50.03361 11 ft 18 kts 347°
2026-05-05 14:19 40.48194 50.03325 12 ft 20 kts 348°
2026-05-05 14:19 40.48338 50.03280 11 ft 23 kts 346°
2026-05-05 14:20 40.48496 50.03228 12 ft 24 kts 346°
2026-05-05 14:20 40.48665 50.03177 10 ft 22 kts 349°
2026-05-05 14:20 40.48797 50.03137 10 ft 17 kts 346°
2026-05-05 14:20 40.48903 50.03097 11 ft 13 kts 336°
2026-05-05 14:21 40.48964 50.03029 11 ft 11 kts 316°
2026-05-05 14:21 40.49018 50.02994 12 ft 7 kts 342°
2026-05-05 14:21 40.49056 50.02997 15 ft 5 kts 32°
2026-05-05 14:21 40.49061 50.03037 13 ft 5 kts 111°
2026-05-05 14:22 40.49024 50.03062 12 ft 8 kts 167°
2026-05-05 14:22 40.48951 50.03085 13 ft 23 kts 166°
2026-05-05 14:22 40.48566 50.03207 12 ft 90 kts 166°
2026-05-05 14:22 40.47775 50.03458 10 ft 141 kts 166°
2026-05-05 14:23 40.46688 50.03794 89 ft 174 kts 167°
2026-05-05 14:23 40.45474 50.04149 569 ft 182 kts 166°
2026-05-05 14:23 40.44198 50.04518 1135 ft 191 kts 166°
2026-05-05 14:23 40.42825 50.04917 1409 ft 215 kts 166°
2026-05-05 14:24 40.41288 50.05369 1770 ft 237 kts 166°
2026-05-05 14:24 40.39620 50.05863 2309 ft 254 kts 166°
2026-05-05 14:24 40.37876 50.06350 2967 ft 264 kts 172°
2026-05-05 14:24 40.36028 50.06236 3676 ft 273 kts 197°
2026-05-05 14:25 40.34314 50.05191 4530 ft 270 kts 216°
2026-05-05 14:25 40.32762 50.03790 5498 ft 273 kts 219°
2026-05-05 14:25 40.31276 50.02263 6428 ft 271 kts 222°
2026-05-05 14:25 40.29891 50.00619 7382 ft 267 kts 232°
2026-05-05 14:26 40.28907 49.98562 7829 ft 267 kts 246°
2026-05-05 14:26 40.28370 49.96241 7974 ft 267 kts 259°
2026-05-05 14:26 40.28261 49.93807 8009 ft 269 kts 266°
2026-05-05 14:26 40.28214 49.91363 8011 ft 268 kts 266°
2026-05-05 14:27 40.28158 49.88924 8004 ft 268 kts 266°
2026-05-05 14:27 40.28100 49.86485 8003 ft 267 kts 265°
2026-05-05 14:27 40.28043 49.84053 8004 ft 267 kts 266°
2026-05-05 14:27 40.27986 49.81623 8003 ft 267 kts 265°
2026-05-05 14:28 40.27925 49.79191 8002 ft 267 kts 265°
2026-05-05 14:28 40.27864 49.76757 8003 ft 268 kts 265°
2026-05-05 14:28 40.27806 49.74322 8004 ft 268 kts 265°
2026-05-05 14:28 40.27746 49.71882 8003 ft 268 kts 265°
2026-05-05 14:29 40.27683 49.69443 8098 ft 271 kts 265°
2026-05-05 14:29 40.27622 49.66971 8876 ft 271 kts 265°
2026-05-05 14:29 40.27559 49.64498 9638 ft 273 kts 265°
2026-05-05 14:29 40.27495 49.61997 10341 ft 278 kts 264°
2026-05-05 14:30 40.27425 49.59377 10570 ft 300 kts 264°
2026-05-05 14:30 40.27348 49.56561 10897 ft 315 kts 264°
2026-05-05 14:30 40.27271 49.53667 11541 ft 320 kts 263°
2026-05-05 14:30 40.27198 49.50760 12310 ft 320 kts 263°
2026-05-05 14:31 40.27126 49.47841 13062 ft 321 kts 263°
2026-05-05 14:31 40.27051 49.44915 13764 ft 323 kts 262°
2026-05-05 14:31 40.26998 49.42967 14198 ft 324 kts 262°
2026-05-05 14:31 40.26890 49.38998 15056 ft 327 kts 262°
2026-05-05 14:32 40.26837 49.37022 15469 ft 329 kts 262°
2026-05-05 14:32 40.26759 49.34025 16083 ft 331 kts 262°
2026-05-05 14:32 40.26679 49.31008 16683 ft 333 kts 262°
2026-05-05 14:32 40.26598 49.27971 17273 ft 335 kts 262°
2026-05-05 14:33 40.26516 49.24910 17863 ft 337 kts 262°
2026-05-05 14:33 40.26421 49.21830 18467 ft 339 kts 260°
2026-05-05 14:33 40.26256 49.18754 19056 ft 340 kts 259°
2026-05-05 14:33 40.26038 49.15661 19599 ft 343 kts 258°
2026-05-05 14:34 40.25794 49.12546 20166 ft 345 kts 258°
2026-05-05 14:34 40.25542 49.09405 20707 ft 348 kts 258°
2026-05-05 14:34 40.25291 49.06242 21244 ft 351 kts 258°
2026-05-05 14:34 40.25047 49.03056 21778 ft 353 kts 258°
2026-05-05 14:35 40.24804 48.99840 22258 ft 356 kts 257°
2026-05-05 14:35 40.24561 48.96599 22737 ft 359 kts 258°
2026-05-05 14:35 40.24319 48.93341 23203 ft 361 kts 257°
2026-05-05 14:35 40.24075 48.90054 23630 ft 364 kts 257°
2026-05-05 14:36 40.23826 48.86741 24040 ft 367 kts 257°
2026-05-05 14:36 40.23573 48.83402 24461 ft 369 kts 257°
2026-05-05 14:36 40.23319 48.80054 24878 ft 372 kts 257°
2026-05-05 14:36 40.23061 48.76676 25257 ft 374 kts 257°
2026-05-05 14:37 40.22802 48.73273 25624 ft 377 kts 257°
2026-05-05 14:37 40.22538 48.69841 25988 ft 379 kts 257°
2026-05-05 14:37 40.22271 48.66396 26336 ft 382 kts 257°
2026-05-05 14:37 40.22002 48.62940 26671 ft 384 kts 257°
2026-05-05 14:38 40.21730 48.59449 27010 ft 386 kts 257°
2026-05-05 14:38 40.21460 48.55985 27330 ft 389 kts 257°
2026-05-05 14:38 40.21180 48.52419 27669 ft 391 kts 257°
2026-05-05 14:38 40.20905 48.48916 27981 ft 393 kts 258°
2026-05-05 14:39 40.20622 48.45351 28318 ft 395 kts 258°
2026-05-05 14:39 40.20336 48.41780 28627 ft 397 kts 258°
2026-05-05 14:39 40.20046 48.38181 28932 ft 398 kts 258°
2026-05-05 14:39 40.19759 48.34576 29230 ft 401 kts 258°
2026-05-05 14:40 40.19473 48.30942 29574 ft 401 kts 258°
2026-05-05 14:40 40.19186 48.27321 30019 ft 399 kts 258°
2026-05-05 14:40 40.18898 48.23720 30433 ft 397 kts 258°
2026-05-05 14:40 40.18607 48.20137 30841 ft 396 kts 258°
2026-05-05 14:41 40.18315 48.16564 31242 ft 395 kts 258°
2026-05-05 14:41 40.18021 48.12995 31604 ft 395 kts 257°
2026-05-05 14:41 40.17724 48.09424 31984 ft 394 kts 257°
2026-05-05 14:41 40.17430 48.05873 32370 ft 393 kts 257°
2026-05-05 14:42 40.17138 48.02329 32752 ft 391 kts 257°
2026-05-05 14:42 40.16847 47.98798 33120 ft 391 kts 257°
2026-05-05 14:42 40.16556 47.95274 33480 ft 390 kts 257°
2026-05-05 14:42 40.16262 47.91746 33829 ft 389 kts 257°
2026-05-05 14:43 40.15966 47.88240 34179 ft 388 kts 257°
2026-05-05 14:43 40.15669 47.84730 34508 ft 387 kts 257°
2026-05-05 14:43 40.15372 47.81237 34817 ft 387 kts 257°
2026-05-05 14:43 40.15072 47.77746 35114 ft 386 kts 257°
2026-05-05 14:44 40.14774 47.74263 35393 ft 386 kts 257°
2026-05-05 14:44 40.14478 47.70778 35655 ft 386 kts 257°
2026-05-05 14:44 40.14183 47.67292 35915 ft 386 kts 257°
2026-05-05 14:44 40.13883 47.63804 36170 ft 385 kts 257°
2026-05-05 14:45 40.13582 47.60331 36418 ft 385 kts 257°
2026-05-05 14:45 40.13279 47.56860 36631 ft 385 kts 257°
2026-05-05 14:45 40.12974 47.53381 36812 ft 386 kts 257°
2026-05-05 14:45 40.12668 47.49898 36878 ft 388 kts 257°
2026-05-05 14:46 40.12045 47.42844 36886 ft 391 kts 257°
2026-05-05 14:46 40.11427 47.35807 36885 ft 390 kts 257°
2026-05-05 14:47 40.10799 47.28779 36882 ft 390 kts 257°
2026-05-05 14:47 40.10171 47.21753 36891 ft 389 kts 257°
2026-05-05 14:48 40.09537 47.14732 36895 ft 390 kts 257°
2026-05-05 14:48 40.08892 47.07691 36901 ft 390 kts 257°
2026-05-05 14:49 40.08244 47.00651 36905 ft 391 kts 257°
2026-05-05 14:49 40.07594 46.93610 36907 ft 391 kts 257°
2026-05-05 14:50 40.06944 46.86557 36909 ft 391 kts 257°
2026-05-05 14:50 40.06286 46.79515 36913 ft 391 kts 257°
2026-05-05 14:51 40.05623 46.72504 36914 ft 391 kts 257°
2026-05-05 14:51 40.04956 46.65457 36903 ft 391 kts 257°
2026-05-05 14:52 40.04288 46.58415 36906 ft 391 kts 257°
2026-05-05 14:52 40.03612 46.51360 36904 ft 391 kts 257°
2026-05-05 14:53 40.02928 46.44317 36894 ft 391 kts 257°
2026-05-05 14:53 40.02236 46.37279 36896 ft 391 kts 257°
2026-05-05 14:54 40.01547 46.30241 36889 ft 391 kts 257°
2026-05-05 14:54 40.00859 46.23193 36892 ft 392 kts 257°
2026-05-05 14:55 40.00165 46.16156 36887 ft 391 kts 257°
2026-05-05 14:55 39.99464 46.09117 36886 ft 391 kts 257°
2026-05-05 14:56 39.98762 46.02100 36884 ft 391 kts 257°
2026-05-05 14:56 39.98054 45.95108 36876 ft 391 kts 257°
2026-05-05 14:57 39.97340 45.88085 36874 ft 391 kts 256°
2026-05-05 14:57 39.96612 45.81019 36874 ft 391 kts 256°
2026-05-05 14:58 39.95888 45.74009 36874 ft 390 kts 256°
2026-05-05 14:58 39.95170 45.67035 36872 ft 390 kts 256°
2026-05-05 14:59 39.94445 45.60031 36867 ft 390 kts 256°
2026-05-05 14:59 39.93709 45.53033 36864 ft 390 kts 256°
2026-05-05 15:00 39.93084 45.47168 36861 ft 391 kts 256°
2026-05-05 15:00 39.92226 45.39017 36857 ft 391 kts 256°
2026-05-05 15:01 39.91485 45.31991 36856 ft 391 kts 256°
2026-05-05 15:01 39.90733 45.24989 36854 ft 391 kts 256°
2026-05-05 15:02 39.89974 45.17980 36846 ft 391 kts 256°
2026-05-05 15:02 39.89215 45.10975 36863 ft 391 kts 256°
2026-05-05 15:03 39.88444 45.03953 36859 ft 392 kts 256°
2026-05-05 15:03 39.87670 44.96932 36838 ft 393 kts 256°
2026-05-05 15:04 39.86892 44.89863 36829 ft 396 kts 256°
2026-05-05 15:04 39.86108 44.82750 36834 ft 398 kts 256°
2026-05-05 15:05 39.84907 44.72016 36833 ft 401 kts 256°
2026-05-05 15:06 39.84095 44.64836 36844 ft 402 kts 256°
2026-05-05 15:06 39.83279 44.57639 36844 ft 403 kts 256°
2026-05-05 15:07 39.82459 44.50421 36849 ft 404 kts 256°
2026-05-05 15:07 39.81634 44.43188 36847 ft 405 kts 256°
2026-05-05 15:08 39.80797 44.35938 36851 ft 406 kts 256°
2026-05-05 15:08 39.79953 44.28666 36855 ft 407 kts 256°
2026-05-05 15:09 39.79107 44.21399 36856 ft 407 kts 256°
2026-05-05 15:09 39.78253 44.14104 36861 ft 408 kts 256°
2026-05-05 15:10 39.77401 44.06815 36865 ft 408 kts 256°
2026-05-05 15:10 39.76537 43.99522 36869 ft 409 kts 255°
2026-05-05 15:11 39.75660 43.92228 36873 ft 409 kts 255°
2026-05-05 15:11 39.74782 43.84924 36878 ft 409 kts 256°
2026-05-05 15:12 39.73910 43.77614 36879 ft 409 kts 256°
2026-05-05 15:12 39.73031 43.70317 36886 ft 409 kts 256°
2026-05-05 15:13 39.72141 43.63015 36885 ft 409 kts 256°
2026-05-05 15:13 39.71245 43.55728 36885 ft 409 kts 255°
2026-05-05 15:14 39.70343 43.48430 36891 ft 409 kts 255°
2026-05-05 15:14 39.69440 43.41142 36900 ft 409 kts 255°
2026-05-05 15:15 39.68531 43.33862 36892 ft 409 kts 256°
2026-05-05 15:15 39.67629 43.26610 36901 ft 409 kts 256°
2026-05-05 15:16 39.66718 43.19326 36905 ft 409 kts 256°
2026-05-05 15:16 39.65644 43.12102 36920 ft 403 kts 245°
2026-05-05 15:16 39.64328 43.08940 36910 ft 395 kts 229°
2026-05-05 15:17 39.62373 43.06487 36902 ft 392 kts 213°
2026-05-05 15:17 39.59943 43.04915 36899 ft 392 kts 198°
2026-05-05 15:17 39.57244 43.04353 36901 ft 398 kts 182°
2026-05-05 15:18 39.51711 43.05327 36887 ft 403 kts 175°
2026-05-05 15:18 39.46148 43.06485 36894 ft 405 kts 175°
2026-05-05 15:19 39.40575 43.07627 36905 ft 406 kts 175°
2026-05-05 15:19 39.35937 43.08572 36903 ft 406 kts 175°
2026-05-05 15:20 39.30351 43.09705 36926 ft 406 kts 176°
2026-05-05 15:20 39.24731 43.10843 36929 ft 406 kts 176°
2026-05-05 15:21 39.19177 43.11975 36937 ft 406 kts 176°
2026-05-05 15:21 39.13595 43.13099 36941 ft 406 kts 176°
2026-05-05 15:22 39.08022 43.14225 36944 ft 405 kts 176°
2026-05-05 15:22 39.02449 43.15357 36950 ft 405 kts 176°
2026-05-05 15:23 38.96880 43.16479 36954 ft 405 kts 176°
2026-05-05 15:23 38.91308 43.17592 36954 ft 405 kts 176°
2026-05-05 15:24 38.85748 43.18711 36956 ft 404 kts 176°
2026-05-05 15:24 38.80198 43.19826 36963 ft 404 kts 176°
2026-05-05 15:25 38.74642 43.20943 36968 ft 403 kts 176°
2026-05-05 15:25 38.69100 43.22052 36968 ft 403 kts 176°
2026-05-05 15:26 38.63567 43.23152 36968 ft 402 kts 176°
2026-05-05 15:26 38.58031 43.24258 36968 ft 402 kts 176°
2026-05-05 15:27 38.52511 43.25358 36968 ft 401 kts 176°
2026-05-05 15:27 38.46998 43.26451 36968 ft 401 kts 176°
2026-05-05 15:28 38.41492 43.27548 36969 ft 400 kts 177°
2026-05-05 15:28 38.35990 43.28645 36968 ft 400 kts 177°
2026-05-05 15:29 38.30481 43.29723 36966 ft 400 kts 177°
2026-05-05 15:29 38.24988 43.30802 36966 ft 399 kts 177°
2026-05-05 15:30 38.19498 43.31897 36968 ft 399 kts 177°
2026-05-05 15:30 38.14012 43.32976 36974 ft 399 kts 177°
2026-05-05 15:31 38.08555 43.34047 36970 ft 398 kts 177°
2026-05-05 15:31 38.03041 43.35126 36973 ft 398 kts 177°
2026-05-05 15:32 37.97571 43.36198 36973 ft 398 kts 177°
2026-05-05 15:32 37.92100 43.37267 36979 ft 397 kts 178°
2026-05-05 15:33 37.86684 43.38325 36980 ft 396 kts 178°
2026-05-05 15:33 37.81244 43.39388 36984 ft 396 kts 178°
2026-05-05 15:34 37.75810 43.40450 36982 ft 395 kts 178°
2026-05-05 15:34 37.70331 43.41515 36984 ft 395 kts 178°
2026-05-05 15:35 37.64939 43.42557 36983 ft 395 kts 178°
2026-05-05 15:35 37.59511 43.43607 36983 ft 395 kts 178°
2026-05-05 15:36 37.54084 43.44656 36980 ft 394 kts 178°
2026-05-05 15:36 37.48659 43.45707 36983 ft 395 kts 178°
2026-05-05 15:37 37.43228 43.46767 36973 ft 394 kts 178°
2026-05-05 15:37 37.37806 43.47816 36966 ft 394 kts 178°
2026-05-05 15:38 37.32382 43.48854 36971 ft 394 kts 178°
2026-05-05 15:38 37.26957 43.49893 36975 ft 395 kts 179°
2026-05-05 15:39 37.21523 43.50929 36977 ft 394 kts 179°
2026-05-05 15:39 37.16099 43.51970 36973 ft 394 kts 179°
2026-05-05 15:40 37.10680 43.53014 36975 ft 394 kts 179°
2026-05-05 15:40 37.05252 43.54057 36973 ft 394 kts 179°
2026-05-05 15:41 36.99840 43.55084 36972 ft 394 kts 179°
2026-05-05 15:41 36.94459 43.56102 36966 ft 393 kts 179°
2026-05-05 15:42 36.89016 43.57138 36960 ft 393 kts 179°
2026-05-05 15:42 36.83615 43.58171 36952 ft 393 kts 179°
2026-05-05 15:43 36.78218 43.59196 36944 ft 392 kts 180°
2026-05-05 15:43 36.72859 43.60210 36937 ft 391 kts 180°
2026-05-05 15:44 36.67477 43.61228 36932 ft 391 kts 180°
2026-05-05 15:44 36.62102 43.62251 36926 ft 391 kts 180°
2026-05-05 15:45 36.56727 43.63266 36911 ft 390 kts 180°
2026-05-05 15:45 36.51359 43.64275 36910 ft 390 kts 180°
2026-05-05 15:46 36.45993 43.65287 36917 ft 389 kts 180°
2026-05-05 15:46 36.40640 43.66294 36904 ft 389 kts 181°
2026-05-05 15:47 36.35295 43.67299 36901 ft 389 kts 181°
2026-05-05 15:47 36.29944 43.68297 36897 ft 388 kts 181°
2026-05-05 15:48 36.24607 43.69292 36894 ft 388 kts 181°
2026-05-05 15:48 36.19277 43.70290 36897 ft 387 kts 181°
2026-05-05 15:49 36.13951 43.71283 36893 ft 387 kts 181°
2026-05-05 15:49 36.08615 43.72276 36886 ft 387 kts 181°
2026-05-05 15:50 36.03290 43.73270 36885 ft 387 kts 181°
2026-05-05 15:50 35.97967 43.74259 36887 ft 386 kts 181°
2026-05-05 15:51 35.92687 43.75237 36887 ft 386 kts 181°
2026-05-05 15:51 35.87380 43.76220 36893 ft 386 kts 181°
2026-05-05 15:52 35.82072 43.77205 36887 ft 386 kts 181°
2026-05-05 15:52 35.76757 43.78191 36888 ft 386 kts 181°
2026-05-05 15:53 35.71449 43.79171 36888 ft 386 kts 181°
2026-05-05 15:53 35.66135 43.80149 36889 ft 386 kts 181°
2026-05-05 15:54 35.60831 43.81122 36891 ft 385 kts 181°
2026-05-05 15:54 35.55519 43.82101 36884 ft 386 kts 181°
2026-05-05 15:55 35.50208 43.83077 36879 ft 386 kts 181°
2026-05-05 15:55 35.44894 43.84042 36880 ft 386 kts 181°
2026-05-05 15:56 35.39575 43.85018 36878 ft 387 kts 181°
2026-05-05 15:56 35.34242 43.85994 36873 ft 387 kts 182°
2026-05-05 15:57 35.28910 43.86964 36877 ft 388 kts 182°
2026-05-05 15:57 35.23572 43.87936 36875 ft 388 kts 182°
2026-05-05 15:58 35.18218 43.88914 36879 ft 389 kts 182°
2026-05-05 15:58 35.12869 43.89896 36875 ft 389 kts 182°
2026-05-05 15:59 35.07513 43.90876 36874 ft 390 kts 182°
2026-05-05 15:59 35.02154 43.91847 36881 ft 389 kts 182°
2026-05-05 16:00 34.96784 43.92815 36880 ft 390 kts 182°
2026-05-05 16:00 34.91419 43.93780 36880 ft 390 kts 182°
2026-05-05 16:01 34.86047 43.94748 36879 ft 391 kts 182°
2026-05-05 16:01 34.80669 43.95723 36877 ft 390 kts 182°
2026-05-05 16:02 34.75294 43.96693 36870 ft 391 kts 183°
2026-05-05 16:02 34.69904 43.97656 36882 ft 391 kts 183°
2026-05-05 16:03 34.64517 43.98620 36888 ft 392 kts 183°
2026-05-05 16:03 34.59124 43.99593 36890 ft 392 kts 183°
2026-05-05 16:04 34.53730 44.00554 36897 ft 392 kts 183°
2026-05-05 16:04 34.48334 44.01519 36905 ft 392 kts 183°
2026-05-05 16:05 34.42963 44.02484 36900 ft 392 kts 183°
2026-05-05 16:05 34.37568 44.03453 36904 ft 392 kts 184°
2026-05-05 16:06 34.32173 44.04418 36910 ft 392 kts 184°
2026-05-05 16:06 34.26773 44.05381 36903 ft 392 kts 184°
2026-05-05 16:07 34.22278 44.06173 36911 ft 393 kts 184°
2026-05-05 16:07 34.16870 44.07137 36901 ft 392 kts 184°
2026-05-05 16:08 34.11466 44.08108 36907 ft 393 kts 184°
2026-05-05 16:08 34.06063 44.09063 36908 ft 393 kts 184°
2026-05-05 16:09 34.00651 44.10022 36911 ft 393 kts 184°
2026-05-05 16:09 33.95245 44.10976 36908 ft 393 kts 184°
2026-05-05 16:10 33.89840 44.11926 36914 ft 393 kts 184°
2026-05-05 16:10 33.84437 44.12873 36914 ft 393 kts 184°
2026-05-05 16:11 33.79025 44.13832 36913 ft 393 kts 184°
2026-05-05 16:12 33.68218 44.15735 36915 ft 393 kts 184°
2026-05-05 16:13 33.54687 44.18104 36903 ft 393 kts 184°
2026-05-05 16:13 33.49312 44.19040 36907 ft 393 kts 184°
2026-05-05 16:14 33.38425 44.20947 36903 ft 395 kts 184°
2026-05-05 16:15 33.27587 44.22828 36899 ft 395 kts 184°
2026-05-05 16:16 33.16682 44.24627 36899 ft 396 kts 184°
2026-05-05 16:17 33.08476 44.25957 36896 ft 397 kts 184°
2026-05-05 16:18 33.00262 44.27296 36899 ft 398 kts 184°
2026-05-05 16:19 32.92020 44.28623 36897 ft 399 kts 184°
2026-05-05 16:19 32.83760 44.29931 36898 ft 399 kts 184°
2026-05-05 16:20 32.72745 44.31674 36910 ft 399 kts 184°
2026-05-05 16:22 32.58953 44.33873 36916 ft 401 kts 184°
2026-05-05 16:23 32.47894 44.35689 36914 ft 409 kts 178°
2026-05-05 16:23 32.45172 44.36934 36907 ft 430 kts 165°
2026-05-05 16:23 32.40412 44.41594 36893 ft 464 kts 143°
2026-05-05 16:24 32.36107 44.47376 36892 ft 466 kts 143°
2026-05-05 16:25 32.29713 44.56002 36897 ft 467 kts 143°
2026-05-05 16:25 32.23255 44.64713 36907 ft 468 kts 143°
2026-05-05 16:26 32.14663 44.76286 36903 ft 469 kts 143°
2026-05-05 16:27 32.10359 44.82059 36893 ft 469 kts 143°
2026-05-05 16:27 32.06044 44.87838 36905 ft 469 kts 142°
2026-05-05 16:28 32.01757 44.93580 36912 ft 470 kts 142°
2026-05-05 16:28 31.97442 44.99357 36906 ft 469 kts 142°
2026-05-05 16:29 31.93124 45.05117 36898 ft 469 kts 142°
2026-05-05 16:29 31.88793 45.10887 36896 ft 470 kts 142°
2026-05-05 16:30 31.84459 45.16654 36902 ft 471 kts 142°
2026-05-05 16:30 31.80114 45.22420 36903 ft 471 kts 142°
2026-05-05 16:31 31.75767 45.28177 36908 ft 471 kts 142°
2026-05-05 16:31 31.71416 45.33939 36912 ft 471 kts 142°
2026-05-05 16:32 31.67065 45.39700 36911 ft 471 kts 142°
2026-05-05 16:32 31.62717 45.45459 36911 ft 472 kts 142°
2026-05-05 16:33 31.58370 45.51234 36920 ft 472 kts 142°
2026-05-05 16:33 31.54023 45.57009 36920 ft 472 kts 142°
2026-05-05 16:34 31.49678 45.62780 36908 ft 472 kts 142°
2026-05-05 16:34 31.45335 45.68551 36918 ft 472 kts 142°
2026-05-05 16:35 31.40990 45.74322 36925 ft 472 kts 142°
2026-05-05 16:35 31.36645 45.80093 36928 ft 472 kts 142°
2026-05-05 16:36 31.32297 45.85868 36907 ft 473 kts 142°
2026-05-05 16:36 31.27959 45.91629 36912 ft 473 kts 142°
2026-05-05 16:37 31.23612 45.97404 36913 ft 472 kts 142°
2026-05-05 16:37 31.19276 46.03163 36907 ft 472 kts 142°
2026-05-05 16:38 31.14917 46.08922 36897 ft 473 kts 142°
2026-05-05 16:38 31.10567 46.14666 36890 ft 473 kts 142°
2026-05-05 16:39 31.06236 46.20384 36886 ft 474 kts 142°
2026-05-05 16:39 31.01874 46.26144 36830 ft 473 kts 142°
2026-05-05 16:40 30.97502 46.31904 36814 ft 474 kts 142°
2026-05-05 16:40 30.93071 46.37558 36812 ft 472 kts 144°
2026-05-05 16:41 30.88558 46.43127 36813 ft 472 kts 144°
2026-05-05 16:41 30.84052 46.48683 36811 ft 472 kts 144°
2026-05-05 16:42 30.79541 46.54245 36814 ft 472 kts 144°
2026-05-05 16:42 30.75026 46.59812 36814 ft 473 kts 144°
2026-05-05 16:43 30.70521 46.65363 36814 ft 473 kts 144°
2026-05-05 16:43 30.66005 46.70930 36811 ft 473 kts 144°
2026-05-05 16:44 30.61494 46.76490 36810 ft 473 kts 144°
2026-05-05 16:44 30.56986 46.82045 36810 ft 473 kts 144°
2026-05-05 16:45 30.52480 46.87598 36811 ft 473 kts 144°
2026-05-05 16:45 30.47970 46.93153 36808 ft 473 kts 145°
2026-05-05 16:46 30.43347 46.98538 36803 ft 471 kts 146°
2026-05-05 16:46 30.38706 47.03888 36805 ft 471 kts 146°
2026-05-05 16:47 30.34064 47.09236 36807 ft 471 kts 146°
2026-05-05 16:47 30.29409 47.14598 36807 ft 472 kts 146°
2026-05-05 16:48 30.24757 47.19950 36805 ft 472 kts 146°
2026-05-05 16:48 30.20100 47.25305 36804 ft 473 kts 146°
2026-05-05 16:49 30.15432 47.30667 36802 ft 473 kts 146°
2026-05-05 16:49 30.10765 47.36019 36803 ft 473 kts 146°
2026-05-05 16:50 30.06084 47.41380 36802 ft 474 kts 146°
2026-05-05 16:50 30.01395 47.46753 36799 ft 475 kts 146°
2026-05-05 16:51 29.96735 47.52083 36799 ft 475 kts 146°
2026-05-05 16:51 29.92007 47.57487 36806 ft 476 kts 146°
2026-05-05 16:52 29.87326 47.62833 36808 ft 477 kts 146°
2026-05-05 16:52 29.83380 47.67331 36799 ft 477 kts 146°
2026-05-05 16:53 29.77757 47.73335 36804 ft 473 kts 149°
2026-05-05 16:53 29.72870 47.78395 36799 ft 473 kts 149°
2026-05-05 16:54 29.68766 47.82641 36800 ft 473 kts 149°
2026-05-05 16:54 29.63876 47.87699 36798 ft 473 kts 149°
2026-05-05 16:55 29.58972 47.92769 36802 ft 473 kts 149°
2026-05-05 16:55 29.54074 47.97814 36803 ft 474 kts 149°
2026-05-05 16:56 29.49173 48.02866 36804 ft 473 kts 149°
2026-05-05 16:56 29.44306 48.07884 36797 ft 474 kts 149°
2026-05-05 16:57 29.39401 48.12936 36796 ft 474 kts 149°
2026-05-05 16:57 29.34468 48.18003 36793 ft 472 kts 151°
2026-05-05 16:58 29.29375 48.22556 36795 ft 466 kts 154°
2026-05-05 16:58 29.24207 48.27063 36796 ft 467 kts 154°
2026-05-05 16:59 29.19044 48.31562 36798 ft 466 kts 154°
2026-05-05 16:59 29.13872 48.36052 36797 ft 466 kts 154°
2026-05-05 17:00 29.08703 48.40539 36794 ft 466 kts 154°
2026-05-05 17:00 29.03538 48.45028 36796 ft 467 kts 154°
2026-05-05 17:01 28.98364 48.49517 36796 ft 467 kts 154°
2026-05-05 17:01 28.93203 48.53994 36797 ft 466 kts 154°
2026-05-05 17:02 28.88028 48.58470 36794 ft 466 kts 154°
2026-05-05 17:02 28.82855 48.62938 36796 ft 467 kts 154°
2026-05-05 17:03 28.77678 48.67408 36795 ft 467 kts 154°
2026-05-05 17:03 28.72504 48.71875 36797 ft 467 kts 154°
2026-05-05 17:04 28.67325 48.76347 36796 ft 467 kts 154°
2026-05-05 17:04 28.62148 48.80817 36796 ft 467 kts 154°
2026-05-05 17:05 28.56976 48.85284 36798 ft 467 kts 154°
2026-05-05 17:05 28.51806 48.89748 36798 ft 467 kts 154°
2026-05-05 17:06 28.46631 48.94215 36794 ft 467 kts 153°
2026-05-05 17:06 28.41439 48.98675 36785 ft 468 kts 154°
2026-05-05 17:07 28.36251 49.03130 36782 ft 468 kts 154°
2026-05-05 17:07 28.31062 49.07583 36777 ft 468 kts 153°
2026-05-05 17:08 28.25854 49.12047 36772 ft 469 kts 154°
2026-05-05 17:08 28.20653 49.16516 36767 ft 469 kts 153°
2026-05-05 17:09 28.15444 49.20979 36767 ft 469 kts 153°
2026-05-05 17:09 28.10239 49.25437 36768 ft 470 kts 153°
2026-05-05 17:10 28.05025 49.29900 36760 ft 470 kts 153°
2026-05-05 17:10 27.99833 49.34340 36757 ft 471 kts 153°
2026-05-05 17:11 27.94565 49.38817 36774 ft 470 kts 153°
2026-05-05 17:11 27.89334 49.43236 36782 ft 470 kts 153°
2026-05-05 17:12 27.84133 49.47631 36780 ft 470 kts 153°
2026-05-05 17:12 27.78901 49.52047 36777 ft 470 kts 153°
2026-05-05 17:13 27.73659 49.56470 36774 ft 470 kts 153°
2026-05-05 17:13 27.68421 49.60889 36774 ft 470 kts 153°
2026-05-05 17:14 27.63182 49.65309 36769 ft 471 kts 153°
2026-05-05 17:14 27.57939 49.69732 36768 ft 471 kts 153°
2026-05-05 17:15 27.52699 49.74152 36769 ft 471 kts 153°
2026-05-05 17:15 27.47449 49.78565 36764 ft 470 kts 153°
2026-05-05 17:16 27.42213 49.82968 36764 ft 470 kts 153°
2026-05-05 17:16 27.36969 49.87367 36756 ft 470 kts 153°
2026-05-05 17:17 27.31736 49.91751 36752 ft 469 kts 153°
2026-05-05 17:17 27.26494 49.96131 36749 ft 469 kts 153°
2026-05-05 17:18 27.21252 50.00496 36752 ft 468 kts 153°
2026-05-05 17:18 27.16012 50.04828 36738 ft 468 kts 153°
2026-05-05 17:19 27.10751 50.09147 36729 ft 468 kts 153°
2026-05-05 17:19 27.05783 50.13210 36729 ft 468 kts 153°
2026-05-05 17:20 27.00544 50.17478 36747 ft 467 kts 153°
2026-05-05 17:20 26.95319 50.21721 36745 ft 467 kts 153°
2026-05-05 17:21 26.90060 50.25977 36745 ft 466 kts 153°
2026-05-05 17:22 26.83230 50.34032 36768 ft 485 kts 136°
2026-05-05 17:22 26.79052 50.39971 36770 ft 485 kts 136°
2026-05-05 17:23 26.74880 50.45884 36769 ft 484 kts 136°
2026-05-05 17:23 26.70700 50.51790 36772 ft 484 kts 136°
2026-05-05 17:24 26.66514 50.57694 36775 ft 484 kts 136°
2026-05-05 17:24 26.62324 50.63587 36776 ft 484 kts 136°
2026-05-05 17:25 26.58135 50.69469 36780 ft 484 kts 136°
2026-05-05 17:25 26.53945 50.75353 36784 ft 484 kts 136°
2026-05-05 17:26 26.49744 50.81237 36789 ft 484 kts 136°
2026-05-05 17:26 26.45551 50.87108 36790 ft 484 kts 136°
2026-05-05 17:27 26.41355 50.92983 36789 ft 484 kts 136°
2026-05-05 17:27 26.37153 50.98844 36790 ft 484 kts 136°
2026-05-05 17:28 26.32953 51.04690 36788 ft 483 kts 136°
2026-05-05 17:28 26.28753 51.10536 36788 ft 483 kts 136°
2026-05-05 17:29 26.24557 51.16376 36789 ft 482 kts 136°
2026-05-05 17:29 26.20359 51.22206 36791 ft 482 kts 135°
2026-05-05 17:30 26.16160 51.28033 36791 ft 483 kts 135°
2026-05-05 17:30 26.11963 51.33798 36788 ft 479 kts 140°
2026-05-05 17:30 26.09549 51.36274 36787 ft 467 kts 151°
2026-05-05 17:31 26.06868 51.38156 36474 ft 457 kts 161°
2026-05-05 17:31 26.03930 51.39454 35435 ft 453 kts 173°
2026-05-05 17:31 26.00852 51.40065 34436 ft 449 kts 183°
2026-05-05 17:31 25.97738 51.40113 33486 ft 449 kts 187°
2026-05-05 17:32 25.94605 51.40067 32631 ft 450 kts 187°
2026-05-05 17:32 25.91464 51.40037 31598 ft 453 kts 186°
2026-05-05 17:32 25.88311 51.40019 30698 ft 452 kts 186°
2026-05-05 17:32 25.85183 51.40005 29852 ft 449 kts 186°
2026-05-05 17:33 25.82066 51.39991 29033 ft 446 kts 186°
2026-05-05 17:33 25.78973 51.39970 28259 ft 442 kts 186°
2026-05-05 17:33 25.75915 51.39941 27486 ft 437 kts 185°
2026-05-05 17:33 25.72888 51.39909 26712 ft 433 kts 185°
2026-05-05 17:34 25.69893 51.39879 25962 ft 428 kts 184°
2026-05-05 17:34 25.66931 51.39849 25215 ft 423 kts 185°
2026-05-05 17:34 25.64053 51.39460 24501 ft 413 kts 197°
2026-05-05 17:34 25.61389 51.38370 23773 ft 404 kts 210°
2026-05-05 17:35 25.59066 51.36670 23059 ft 398 kts 222°
2026-05-05 17:35 25.57168 51.34478 22351 ft 394 kts 233°
2026-05-05 17:35 25.55520 51.32064 21655 ft 392 kts 234°
2026-05-05 17:35 25.53885 51.29660 20971 ft 389 kts 234°
2026-05-05 17:36 25.52265 51.27277 20270 ft 386 kts 234°
2026-05-05 17:36 25.50649 51.24909 19594 ft 383 kts 234°
2026-05-05 17:36 25.49062 51.22590 19101 ft 373 kts 234°
2026-05-05 17:36 25.47515 51.20332 18613 ft 365 kts 234°
2026-05-05 17:37 25.45998 51.18116 18131 ft 357 kts 234°
2026-05-05 17:37 25.45013 51.16679 17814 ft 352 kts 234°
2026-05-05 17:37 25.43056 51.13827 17182 ft 344 kts 234°
2026-05-05 17:37 25.41622 51.11740 16728 ft 338 kts 234°
2026-05-05 17:38 25.40069 51.09824 16269 ft 334 kts 223°
2026-05-05 17:38 25.38166 51.08378 15812 ft 331 kts 208°
2026-05-05 17:38 25.36005 51.07466 15170 ft 340 kts 195°
2026-05-05 17:38 25.33628 51.07160 14471 ft 347 kts 181°
2026-05-05 17:39 25.31240 51.07503 13773 ft 350 kts 162°
2026-05-05 17:39 25.29082 51.08752 13063 ft 351 kts 140°
2026-05-05 17:39 25.27548 51.10813 12403 ft 347 kts 114°
2026-05-05 17:39 25.26929 51.13308 12200 ft 328 kts 91°
2026-05-05 17:40 25.26905 51.15769 11911 ft 317 kts 87°
2026-05-05 17:40 25.26914 51.17372 11634 ft 313 kts 86°
2026-05-05 17:40 25.26949 51.20562 10810 ft 308 kts 86°
2026-05-05 17:40 25.26969 51.22128 10398 ft 306 kts 86°
2026-05-05 17:41 25.26998 51.24466 10081 ft 303 kts 88°
2026-05-05 17:41 25.26755 51.26800 9853 ft 310 kts 100°
2026-05-05 17:41 25.26277 51.29063 9503 ft 307 kts 101°
2026-05-05 17:41 25.25785 51.31351 9187 ft 306 kts 101°
2026-05-05 17:42 25.25300 51.33605 8867 ft 304 kts 101°
2026-05-05 17:42 25.24813 51.35872 8538 ft 302 kts 101°
2026-05-05 17:42 25.24330 51.38122 8231 ft 300 kts 101°
2026-05-05 17:42 25.23849 51.40359 7912 ft 299 kts 100°
2026-05-05 17:43 25.23376 51.42579 7593 ft 297 kts 100°
2026-05-05 17:43 25.22901 51.44791 7285 ft 295 kts 102°
2026-05-05 17:43 25.22116 51.46882 6967 ft 297 kts 120°
2026-05-05 17:43 25.20761 51.48603 6653 ft 299 kts 139°
2026-05-05 17:44 25.18972 51.49761 6333 ft 300 kts 157°
2026-05-05 17:44 25.17034 51.50606 6017 ft 299 kts 157°
2026-05-05 17:44 25.15104 51.51452 5697 ft 297 kts 157°
2026-05-05 17:44 25.13187 51.52296 5381 ft 295 kts 157°
2026-05-05 17:45 25.11295 51.53134 5072 ft 293 kts 157°
2026-05-05 17:45 25.09414 51.53966 4766 ft 291 kts 157°
2026-05-05 17:45 25.07543 51.54794 4459 ft 289 kts 157°
2026-05-05 17:45 25.05684 51.55615 4156 ft 287 kts 157°
2026-05-05 17:46 25.03834 51.56428 3829 ft 286 kts 157°
2026-05-05 17:46 25.02012 51.57226 3688 ft 277 kts 157°
2026-05-05 17:46 25.00361 51.58197 3560 ft 264 kts 135°
2026-05-05 17:46 24.99454 51.59838 3503 ft 245 kts 101°
2026-05-05 17:47 24.99488 51.61665 3510 ft 238 kts 69°
2026-05-05 17:47 25.00180 51.63317 3509 ft 238 kts 63°
2026-05-05 17:47 25.00837 51.64997 3502 ft 238 kts 66°
2026-05-05 17:47 25.01438 51.66699 3509 ft 239 kts 67°
2026-05-05 17:48 25.02101 51.68371 3503 ft 236 kts 53°
2026-05-05 17:48 25.03300 51.69468 3504 ft 218 kts 20°
2026-05-05 17:48 25.04725 51.69635 3501 ft 201 kts 349°
2026-05-05 17:48 25.06006 51.69135 3506 ft 194 kts 339°
2026-05-05 17:49 25.07238 51.68589 3537 ft 183 kts 339°
2026-05-05 17:49 25.08369 51.68091 3486 ft 168 kts 340°
2026-05-05 17:49 25.09417 51.67631 3357 ft 153 kts 340°
2026-05-05 17:49 25.10361 51.67216 3180 ft 142 kts 340°
2026-05-05 17:50 25.11280 51.66813 2998 ft 141 kts 340°
2026-05-05 17:50 25.12190 51.66414 2817 ft 141 kts 340°
2026-05-05 17:50 25.13099 51.66015 2636 ft 141 kts 340°
2026-05-05 17:50 25.14005 51.65617 2455 ft 140 kts 340°
2026-05-05 17:51 25.14909 51.65220 2262 ft 139 kts 340°
2026-05-05 17:51 25.15809 51.64824 2077 ft 139 kts 340°
2026-05-05 17:51 25.16706 51.64429 1886 ft 138 kts 340°
2026-05-05 17:51 25.17601 51.64036 1709 ft 139 kts 340°
2026-05-05 17:52 25.18494 51.63644 1526 ft 138 kts 340°
2026-05-05 17:52 25.19380 51.63254 1344 ft 137 kts 339°
2026-05-05 17:52 25.20263 51.62865 1162 ft 136 kts 339°
2026-05-05 17:52 25.21143 51.62478 985 ft 136 kts 340°
2026-05-05 17:53 25.22018 51.62096 802 ft 135 kts 339°
2026-05-05 17:53 25.22893 51.61708 632 ft 135 kts 339°
2026-05-05 17:53 25.23764 51.61310 438 ft 135 kts 339°
2026-05-05 17:53 25.24635 51.60931 243 ft 134 kts 340°
2026-05-05 17:54 25.25508 51.60550 90 ft 135 kts 339°
2026-05-05 17:54 25.26340 51.60188 29 ft 115 kts 339°
2026-05-05 17:54 25.26942 51.59927 26 ft 68 kts 338°
2026-05-05 17:54 25.27235 51.59823 27 ft 29 kts 355°
2026-05-05 17:55 25.27370 51.59828 27 ft 13 kts
2026-05-05 17:55 25.27422 51.59872 28 ft 10 kts 77°
2026-05-05 17:55 25.27382 51.59933 29 ft 12 kts 157°
2026-05-05 17:55 25.27298 51.59972 29 ft 15 kts 158°
2026-05-05 17:56 25.27195 51.60016 29 ft 18 kts 160°
2026-05-05 17:56 25.27072 51.60069 28 ft 21 kts 158°
2026-05-05 17:56 25.26926 51.60134 28 ft 24 kts 159°
2026-05-05 17:56 25.26769 51.60204 28 ft 22 kts 158°
2026-05-05 17:57 25.26628 51.60266 29 ft 23 kts 158°
2026-05-05 17:57 25.26472 51.60335 29 ft 26 kts 158°
2026-05-05 17:57 25.26298 51.60411 30 ft 27 kts 159°
2026-05-05 17:57 25.26131 51.60484 29 ft 24 kts 158°
2026-05-05 17:58 25.25995 51.60544 29 ft 20 kts 158°
2026-05-05 17:58 25.25884 51.60593 29 ft 14 kts 159°
2026-05-05 17:58 25.25800 51.60629 29 ft 9 kts 158°
2026-05-05 17:58 25.25747 51.60664 29 ft 9 kts 130°
2026-05-05 17:59 25.25744 51.60731 30 ft 10 kts 71°
2026-05-05 17:59 25.25772 51.60810 30 ft 12 kts 68°
2026-05-05 17:59 25.25805 51.60903 30 ft 11 kts 69°
2026-05-05 17:59 25.25849 51.60965 30 ft 10 kts 28°
2026-05-05 18:00 25.25901 51.60971 30 ft 6 kts 356°
2026-05-05 18:00 25.25921 51.60970 30 ft 0 kts 358°